Weather History for McAlester, OK

Change the Weather History Date:

Monday, October 8, 2012

  Actual Average Record
Temperature  
Mean Temperature 49 °F -  
Max Temperature 64 °F 75 °F 98 °F (1963)
Min Temperature 34 °F 52 °F 33 °F (2000)
Degree Days  
Heating Degree Days 16    
Moisture  
Dew Point 36 °F    
Average Humidity 63    
Maximum Humidity 93    
Minimum Humidity 33    
Precipitation  
Precipitation 0.00 in - - ()
Sea Level Pressure  
Sea Level Pressure 30.17 in    
Wind  
Wind Speed 2 mph (South)    
Max Wind Speed 10 mph    
Max Gust Speed -    
Visibility 10 miles    
Events      
Averages and records for this station are not official NWS values.
T = Trace of Precipitation, MM = Missing Value Source: NWS Daily Summary

Daily Weather History Graph

Daily Weather History Graph

Search for Another Location

Airport:

Trip Planner

Search our weather history database for the weather conditions in past years. The results will help you decide how hot, cold, wet, or windy it might be!

Date:

Astronomy

Oct. 08, 2012 Rise Set
Actual Time 7:23 AM CDT 6:56 PM CDT
Civil Twilight 6:58 AM CDT 7:22 PM CDT
Nautical Twilight 6:29 AM CDT 7:51 PM CDT
Astronomical Twilight 5:59 AM CDT 8:20 PM CDT
Moon 12:19 AM CDT (10/8) 2:32 PM CDT (10/8)
Length of Visible Light 12h 23m
Length of Day
11h 33m
Last Quarter, 46% of the Moon is Illuminated
Oct 8
Last Quarter
Oct 15
New
Oct 21
First Quarter
Oct 29
Full
Nov 6
Last Quarter

Hourly Weather History & Observations

Time (CDT) Temp. Dew Point Humidity Pressure Visibility Wind Dir Wind Speed Gust Speed Precip Events Conditions
12:53 AM 45.0 °F 42.1 °F 90% 30.25 in 10.0 mi Calm Calm - N/A   Overcast
1:53 AM 44.1 °F 41.0 °F 89% 30.24 in 10.0 mi Calm Calm - N/A   Partly Cloudy
2:53 AM 39.0 °F 37.0 °F 93% 30.24 in 10.0 mi Calm Calm - N/A   Mostly Cloudy
3:53 AM 37.0 °F 35.1 °F 93% 30.22 in 10.0 mi Calm Calm - N/A   Scattered Clouds
4:53 AM 35.1 °F 33.1 °F 92% 30.23 in 10.0 mi Calm Calm - N/A   Scattered Clouds
5:53 AM 34.0 °F 32.0 °F 92% 30.23 in 10.0 mi Calm Calm - N/A   Partly Cloudy
6:53 AM 36.0 °F 34.0 °F 93% 30.23 in 8.0 mi Calm Calm - N/A   Clear
7:53 AM 36.0 °F 34.0 °F 93% 30.25 in 7.0 mi Calm Calm - N/A   Clear
8:53 AM 43.0 °F 39.9 °F 89% 30.26 in 10.0 mi Calm Calm - N/A   Scattered Clouds
9:53 AM 50.0 °F 42.1 °F 74% 30.26 in 10.0 mi SSW 3.5 mph - N/A   Clear
10:53 AM 54.0 °F 33.1 °F 45% 30.25 in 10.0 mi SW 5.8 mph - N/A   Clear
11:53 AM 57.0 °F 33.1 °F 40% 30.23 in 10.0 mi Calm Calm - N/A   Clear
12:53 PM 59.0 °F 33.1 °F 38% 30.20 in 10.0 mi SSW 6.9 mph - N/A   Clear
1:53 PM 60.1 °F 32.0 °F 35% 30.17 in 10.0 mi Variable 3.5 mph - N/A   Partly Cloudy
2:53 PM 63.0 °F 33.1 °F 33% 30.13 in 10.0 mi Variable 4.6 mph - N/A   Clear
3:53 PM 64.9 °F 36.0 °F 34% 30.11 in 10.0 mi South 10.4 mph - N/A   Scattered Clouds
4:53 PM 64.0 °F 34.0 °F 33% 30.09 in 10.0 mi South 8.1 mph - N/A   Partly Cloudy
5:53 PM 62.1 °F 36.0 °F 38% 30.08 in 10.0 mi South 4.6 mph - N/A   Partly Cloudy
6:53 PM 59.0 °F 37.9 °F 46% 30.08 in 10.0 mi South 4.6 mph - N/A   Partly Cloudy
7:53 PM 57.0 °F 37.0 °F 47% 30.07 in 10.0 mi South 4.6 mph - N/A   Clear
8:53 PM 55.9 °F 37.0 °F 49% 30.07 in 10.0 mi SSE 4.6 mph - N/A   Clear
9:53 PM 54.0 °F 37.9 °F 55% 30.08 in 10.0 mi SSE 5.8 mph - N/A   Partly Cloudy
10:53 PM 52.0 °F 39.0 °F 61% 30.08 in 10.0 mi South 6.9 mph - N/A   Clear
11:53 PM 52.0 °F 39.9 °F 63% 30.08 in 10.0 mi South 5.8 mph - N/A   Scattered Clouds